User: anonymous   Login
Location: Unspecified
(42.1900°N, 71.3291°W)
Time: 22:21:43
(UTC-04:00)
Language:

Resurs 1-4 Rocket - Orbit

View from above orbital plane
View from above orbital plane
View from above satellite
View from above satellite

Ground track
Ground track

The orbit data is extracted from the following two-line orbital elements,

1 25400U 98043G   15244.49078284  .00000020  00000-0  26243-4 0  9996
2 25400  98.3929 206.0465 0010895  56.8024 303.4200 14.25344249891800
Epoch (UTC): 01 September 2015 11:46:43
Eccentricity: 0.0010895
inclination: 98.3929°
perigee height: 799 km
apogee height: 815 km
right ascension of ascending node: 206.0465°
argument of perigee: 56.8024°
revolutions per day: 14.25344249
mean anomaly at epoch: 303.4200°
orbit number at epoch: 89180

The dashed part of the orbit path shows where the satellite is in the earth's shadow,  

DLR